Location: Rowland
(34.5359°N, 79.2929°W)
Time: 14:28:51
(UTC+00:00)

Transit 4A - Pass Details

Date: 04 October 2022
Orbit: 871 x 972 km, 66.8° (Epoch: 29 November)

Event Time Altitude Azimuth Distance (km) Brightness Sun altitude
Rises 12:39:19 0° 328° (NNW) 3,474 10.5 16.3°
Reaches altitude 10° 12:41:51 10° 325° (NW) 2,527 9.8 16.8°
Maximum altitude 12:47:32 57° 248° (WSW) 1,020 8.2 18.0°
Drops below altitude 10° 12:53:11 10° 171° (S) 2,515 10.7 19.1°
Sets 12:55:42 0° 167° (SSE) 3,457 11.4 19.5°
